Date,TemperatureHighF,TemperatureAvgF,TemperatureLowF,DewpointHighF,DewpointAvgF,DewpointLowF,HumidityHigh,HumidityAvg,HumidityLow,PressureMaxIn,PressureMinIn,WindSpeedMaxMPH,WindSpeedAvgMPH,GustSpeedMaxMPH,PrecipitationSumIn
2013-1-1,13,3,-2,4,-3,-8,80,74,61,0.00,40.00,9,3,15,0.01
2013-1-2,8,3,0,1,-2,-7,81,76,68,0.00,40.00,11,5,17,0.01
2013-1-3,24,8,-3,4,-5,-10,73,57,41,0.00,40.00,3,1,7,0.10
2013-1-4,36,20,9,7,-3,-18,57,36,23,0.00,40.00,6,2,8,0.05
2013-1-5,28,19,13,3,-6,-15,57,33,24,0.00,40.00,9,3,14,0.01
2013-1-6,41,26,18,-6,-16,-30,31,15,6,0.00,40.00,5,2,10,0.00
2013-1-7,38,26,18,1,-10,-20,29,21,12,0.00,40.00,6,3,10,0.00
2013-1-8,26,18,15,14,5,-17,85,60,17,0.00,40.00,9,4,15,0.00
2013-1-9,44,29,16,13,7,-2,79,44,19,0.00,40.00,7,3,12,0.00
2013-1-10,37,31,22,5,-4,-13,43,23,12,0.00,40.00,12,7,28,0.00
2013-1-11,24,10,-5,12,-1,-13,89,64,32,0.00,40.00,20,11,41,0.00
2013-1-12,3,-4,-8,-5,-11,-15,74,71,68,0.00,40.00,8,4,15,0.00
2013-1-13,6,-5,-10,-3,-13,-17,74,68,54,0.00,40.00,7,2,12,0.00
2013-1-14,6,-7,-13,-7,-15,-20,71,66,54,0.00,40.00,9,2,12,0.00
2013-1-15,5,-4,-13,0,-12,-20,80,70,60,0.00,40.00,4,2,8,0.00
2013-1-16,28,17,5,17,10,0,88,77,59,0.00,40.00,5,3,9,0.07
2013-1-17,39,24,15,14,5,-3,73,47,26,0.00,40.00,6,2,10,0.01
2013-1-18,33,25,17,3,-3,-8,54,30,22,0.00,40.00,11,7,17,0.00
2013-1-19,35,26,20,-1,-4,-8,34,26,20,0.00,40.00,10,6,21,0.00
2013-1-20,31,24,19,-2,-6,-11,38,26,19,0.00,40.00,9,6,18,0.00
2013-1-21,30,23,16,5,-3,-14,41,32,17,0.00,40.00,12,5,21,0.00
2013-1-22,39,30,23,-12,-17,-31,18,12,5,0.00,40.00,11,8,20,0.00
2013-1-23,47,35,26,-5,-17,-33,17,10,5,0.00,40.00,16,5,25,0.00
2013-1-24,36,30,26,25,7,-9,95,45,17,0.00,40.00,24,13,40,0.00
2013-1-25,34,28,25,27,24,22,96,86,68,0.00,40.00,9,5,14,0.00
2013-1-26,40,29,25,26,24,22,96,82,54,0.00,40.00,9,3,13,0.00
2013-1-27,36,28,25,26,19,7,96,71,39,0.00,40.00,14,8,24,0.07
2013-1-28,33,20,4,20,12,-1,89,73,43,0.00,40.00,13,7,26,0.02
2013-1-29,7,2,-2,-1,-4,-8,80,76,67,0.00,40.00,9,5,16,0.00
2013-1-30,14,6,-2,11,2,-8,87,81,76,0.00,40.00,15,11,25,0.00
2013-1-31,20,16,14,15,12,10,87,83,79,0.00,40.00,21,12,34,0.00
2013-2-1,19,17,16,15,13,11,89,83,74,0.00,40.00,18,11,34,0.00
2013-2-2,31,21,14,19,10,1,90,64,34,0.00,40.00,10,4,17,0.21
2013-2-3,37,24,18,3,-3,-17,52,32,9,0.00,40.00,12,5,16,0.01
2013-2-4,29,22,16,6,1,-5,60,41,28,0.00,40.00,13,6,21,0.01
2013-2-5,39,28,17,17,12,6,66,50,36,0.00,40.00,11,5,20,0.00
2013-2-6,29,24,15,20,14,10,90,67,51,0.00,40.00,13,7,24,0.00
2013-2-7,30,19,9,19,8,-15,88,66,16,0.00,40.00,13,5,19,0.12
2013-2-8,37,27,15,10,0,-15,58,32,16,0.00,40.00,14,9,27,0.01
2013-2-9,26,17,8,16,9,4,93,73,39,0.00,40.00,13,6,27,0.00
2013-2-10,15,9,6,8,4,0,84,78,66,0.00,40.00,11,5,21,0.00
2013-2-11,16,7,2,7,1,-3,82,76,61,0.00,40.00,10,3,16,0.00
2013-2-12,20,6,-2,5,-4,-8,79,65,41,0.00,40.00,8,2,14,0.04
2013-2-13,17,13,5,12,7,0,87,77,67,0.00,40.00,15,8,25,0.01
2013-2-14,16,13,10,12,9,6,87,82,67,0.00,40.00,13,8,21,0.00
2013-2-15,13,10,8,9,6,4,85,83,80,0.00,40.00,16,10,26,0.00
2013-2-16,29,20,12,12,8,-1,85,59,37,0.00,40.00,17,10,27,0.01
2013-2-17,35,25,9,11,-2,-12,86,34,18,0.00,40.00,21,12,35,0.01
2013-2-18,15,8,4,6,2,-2,84,75,65,0.00,40.00,18,8,27,0.00
2013-2-19,35,21,7,-2,-9,-20,65,29,8,0.00,40.00,9,4,15,0.02
2013-2-20,33,24,15,17,4,-4,90,45,29,0.00,40.00,10,6,16,0.01
2013-2-21,18,13,7,13,9,3,89,84,79,0.00,40.00,10,6,15,0.01
2013-2-22,24,8,3,18,3,-3,83,78,72,0.00,40.00,11,5,16,0.06
2013-2-23,25,13,3,16,7,-3,88,76,64,0.00,40.00,8,5,15,0.01
2013-2-24,16,10,4,10,6,-1,86,81,72,0.00,40.00,8,4,19,0.01
2013-2-25,23,12,3,9,2,-2,82,65,45,0.00,40.00,7,3,14,0.22
2013-2-26,13,9,6,6,3,1,84,76,59,0.00,40.00,10,5,17,0.01
2013-2-27,20,8,3,13,1,-6,81,73,58,0.00,40.00,12,4,19,0.11
2013-2-28,19,10,3,10,2,-5,86,69,46,0.00,40.00,14,7,22,0.01
2013-3-1,21,17,13,19,14,10,91,88,86,0.00,40.00,12,7,23,0.00
2013-3-2,35,27,20,31,21,12,91,80,46,0.00,40.00,9,5,16,0.15
2013-3-3,36,30,25,23,16,9,88,56,41,0.00,40.00,21,14,36,0.05
2013-3-4,25,15,4,22,11,-2,93,84,76,0.00,40.00,21,11,36,0.00
2013-3-5,35,20,3,24,-1,-12,77,48,13,0.00,40.00,10,4,16,0.06
2013-3-6,45,34,24,8,1,-14,32,25,17,0.00,40.00,10,5,17,0.01
2013-3-7,45,36,28,8,4,-2,41,26,17,0.00,40.00,16,5,28,0.00
2013-3-8,44,33,22,21,10,-3,91,41,21,0.00,40.00,12,5,25,0.00
2013-3-9,26,19,8,23,16,2,93,86,75,0.00,40.00,13,6,23,0.00
2013-3-10,23,14,7,12,7,2,83,73,57,0.00,40.00,10,5,18,0.24
2013-3-11,26,20,14,19,13,6,91,72,63,0.00,40.00,18,10,32,0.01
2013-3-12,30,23,20,24,19,18,91,84,68,0.00,40.00,20,12,30,0.02
2013-3-13,40,31,24,20,17,13,75,58,35,0.00,40.00,14,8,22,0.02
2013-3-14,46,37,30,18,13,7,53,38,20,0.00,40.00,13,7,21,0.02
2013-3-15,48,40,34,18,15,13,45,36,27,0.00,40.00,16,10,24,0.00
2013-3-16,36,30,26,28,23,17,94,75,45,0.00,40.00,12,6,23,0.04
2013-3-17,30,24,10,21,15,6,91,71,42,0.00,40.00,29,15,55,0.04
2013-3-18,24,15,6,9,5,0,84,65,47,0.00,40.00,25,16,44,0.00
2013-3-19,28,20,14,5,-7,-20,56,32,14,0.00,40.00,24,13,41,0.00
2013-3-20,37,27,19,21,0,-24,77,37,12,0.00,40.00,20,9,32,0.00
2013-3-21,33,22,10,23,17,6,93,81,65,0.00,40.00,19,9,35,0.04
2013-3-22,23,14,8,11,7,4,86,76,50,0.00,40.00,15,5,26,0.02
2013-3-23,13,8,3,7,2,-2,84,76,64,0.00,40.00,10,6,18,0.02
2013-3-24,7,2,-1,0,-4,-7,79,76,69,0.00,40.00,21,9,32,0.00
2013-3-25,20,9,-1,4,-4,-11,77,59,34,0.00,40.00,10,6,15,0.01
2013-3-26,38,25,11,17,7,-10,64,48,35,0.00,40.00,23,11,38,0.01
2013-3-27,38,29,21,25,19,15,92,70,43,0.00,40.00,13,8,25,0.09
2013-3-28,44,39,33,20,16,12,59,39,28,0.00,40.00,12,7,21,0.00
2013-3-29,39,32,29,29,21,14,92,64,44,0.00,40.00,15,8,23,0.01
2013-3-30,40,31,26,27,20,-100,95,69,45,0.00,40.00,16,9,27,0.01
2013-3-31,45,35,25,21,15,10,82,47,27,0.00,40.00,10,6,19,0.01
2013-4-1,51,36,28,29,19,10,96,53,32,0.00,40.00,11,5,22,0.01
2013-4-2,37,28,21,29,25,19,96,90,73,0.00,40.00,9,3,15,0.09
2013-4-3,39,30,18,26,19,11,93,69,43,0.00,40.00,9,4,18,0.19
2013-4-4,46,37,25,23,18,11,92,48,26,0.00,40.00,12,6,21,0.03
2013-4-5,46,38,25,28,17,12,96,47,30,0.00,40.00,19,12,30,0.01
2013-4-6,38,30,21,25,21,19,94,73,48,0.00,40.00,14,8,21,0.11
2013-4-7,34,28,24,27,24,19,95,84,60,0.00,40.00,17,8,35,0.08
2013-4-8,47,36,28,26,16,8,75,46,23,0.00,40.00,15,11,34,0.01
2013-4-9,32,23,7,22,14,3,92,70,43,0.00,40.00,9,5,21,0.02
2013-4-10,24,12,3,11,4,-2,82,69,50,0.00,40.00,13,6,24,0.03
2013-4-11,30,22,12,23,18,6,92,84,72,0.00,40.00,18,9,32,0.03
2013-4-12,37,27,22,22,15,4,91,64,27,0.00,40.00,16,9,29,0.08
2013-4-13,38,32,26,28,12,5,95,45,27,0.00,40.00,21,13,39,0.01
2013-4-14,27,16,10,26,13,6,95,85,81,0.00,40.00,24,11,41,0.00
2013-4-15,25,20,15,23,18,12,91,90,88,0.00,40.00,16,6,26,0.00
2013-4-16,41,30,20,28,20,17,94,71,40,0.00,40.00,23,12,37,0.01
2013-4-17,26,17,4,23,14,-1,93,87,80,0.00,40.00,9,4,20,0.03
2013-4-18,12,6,0,5,0,-5,80,75,67,0.00,40.00,17,7,26,0.01
2013-4-19,27,19,10,18,10,5,89,68,52,0.00,40.00,14,9,23,0.07
2013-4-20,37,26,20,28,21,17,94,81,51,0.00,40.00,12,6,18,0.20
2013-4-21,36,29,21,24,18,10,94,68,38,0.00,40.00,15,9,25,0.10
2013-4-22,34,27,19,30,22,14,94,84,52,0.00,40.00,14,8,27,0.04
2013-4-23,21,17,11,17,12,2,90,80,62,0.00,40.00,17,8,27,0.25
2013-4-24,32,22,12,13,2,-6,62,43,26,0.00,40.00,16,8,24,0.02
2013-4-25,46,35,22,11,4,-6,38,27,21,0.00,40.00,14,6,26,0.01
2013-4-26,48,39,29,10,7,1,38,27,14,0.00,40.00,12,5,21,0.00
2013-4-27,49,40,31,15,9,4,33,28,21,0.00,40.00,12,7,22,0.00
2013-4-28,54,44,35,27,15,6,67,32,25,0.00,40.00,14,8,32,0.00
2013-4-29,52,43,34,29,22,16,81,45,24,0.00,40.00,22,14,34,0.00
2013-4-30,50,43,31,32,24,15,97,50,29,0.00,40.00,17,12,38,0.00
2013-5-1,31,23,15,30,20,12,97,90,85,0.00,40.00,11,6,27,0.08
2013-5-2,26,19,9,18,12,5,88,75,58,0.00,40.00,9,4,18,0.29
2013-5-3,46,32,20,13,8,3,61,38,21,0.00,40.00,8,4,12,0.15
2013-5-4,50,38,29,28,18,12,75,45,23,0.00,40.00,13,7,25,0.01
2013-5-5,50,40,31,26,19,15,72,46,24,0.00,40.00,13,6,30,0.01
2013-5-6,48,38,33,32,25,20,84,59,36,0.00,40.00,8,4,18,0.00
2013-5-7,47,36,30,30,27,21,96,71,42,0.00,40.00,10,5,20,0.05
2013-5-8,42,34,29,33,28,24,97,82,62,0.00,40.00,11,5,75,0.14
2013-5-9,44,35,28,29,26,21,97,72,45,0.00,40.00,16,8,29,0.22
2013-5-10,49,38,29,28,20,-100,77,54,28,0.00,40.00,9,5,23,0.02
2013-5-11,49,40,32,28,21,-100,65,49,33,0.00,40.00,10,6,32,0.00
2013-5-12,54,46,37,26,23,21,57,42,29,0.00,40.00,14,7,25,0.00
2013-5-13,66,53,46,29,26,23,45,35,22,0.00,40.00,11,6,20,0.00
2013-5-14,61,52,42,35,28,23,74,41,25,0.00,40.00,18,7,34,0.01
2013-5-15,56,47,37,37,32,28,95,57,36,0.00,40.00,18,6,25,0.13
2013-5-16,56,43,37,36,16,-100,95,55,30,0.00,40.00,13,7,24,0.11
2013-5-17,61,51,46,26,12,-100,43,25,12,0.00,40.00,15,9,29,0.00
2013-5-18,51,42,31,31,22,10,97,50,23,0.00,40.00,21,7,35,0.01
2013-5-19,40,33,28,30,28,25,97,83,62,0.00,40.00,11,6,24,0.27
2013-5-20,39,32,29,33,29,26,96,89,72,0.00,40.00,17,9,29,0.29
2013-5-21,45,35,27,28,25,23,89,68,42,0.00,40.00,15,7,23,0.11
2013-5-22,59,48,38,27,23,18,57,40,20,0.00,40.00,20,8,32,0.07
2013-5-23,59,52,42,28,20,11,54,32,16,0.00,40.00,17,11,33,0.00
2013-5-24,60,53,45,16,14,11,29,22,15,0.00,40.00,16,8,30,0.00
2013-5-25,63,54,47,13,10,5,23,17,11,0.00,40.00,13,8,26,0.00
2013-5-26,63,55,47,22,14,9,29,20,15,0.00,40.00,15,7,27,0.00
2013-5-27,57,50,44,20,12,4,33,22,17,0.00,40.00,17,10,32,0.00
2013-5-28,57,49,38,29,16,12,69,28,17,0.00,40.00,16,9,29,0.00
2013-5-29,38,34,30,35,30,27,97,88,69,0.00,40.00,13,6,29,0.17
2013-5-30,45,34,28,29,24,18,97,73,33,0.00,40.00,27,15,47,0.16
2013-5-31,46,37,29,21,14,7,62,42,21,0.00,40.00,24,16,44,0.15
2013-6-1,53,40,29,28,21,-100,67,49,34,0.00,40.00,10,5,17,0.00
2013-6-2,66,53,39,26,19,14,57,29,14,0.00,40.00,18,8,28,0.00
2013-6-3,64,56,46,26,18,12,35,23,15,0.00,40.00,27,15,45,0.00
2013-6-4,63,52,43,29,18,8,49,27,19,0.00,40.00,19,8,44,0.00
2013-6-5,59,49,41,31,26,17,67,42,21,0.00,40.00,14,8,27,0.00
2013-6-6,63,52,44,28,23,16,46,32,24,0.00,40.00,11,6,24,0.00
2013-6-7,61,52,44,31,28,24,53,42,24,0.00,40.00,18,8,32,0.00
2013-6-8,61,54,48,33,30,24,54,41,26,0.00,40.00,19,12,34,0.00
2013-6-9,70,58,45,30,26,22,42,30,19,0.00,40.00,13,8,25,0.00
2013-6-10,74,65,58,27,24,18,29,22,12,0.00,40.00,23,10,38,0.00
2013-6-11,71,63,52,20,16,6,24,17,9,0.00,40.00,25,12,41,0.00
2013-6-12,74,61,50,23,18,14,25,19,11,0.00,40.00,16,9,29,0.00
2013-6-13,71,63,57,26,22,14,30,20,17,0.00,40.00,18,10,33,0.00
2013-6-14,70,60,47,30,23,12,47,26,11,0.00,40.00,19,10,28,0.00
2013-6-15,67,57,45,27,22,18,40,27,15,0.00,40.00,21,10,35,0.00
2013-6-16,61,53,46,37,29,22,55,40,30,0.00,40.00,21,7,37,0.00
2013-6-17,64,54,46,30,26,20,53,36,20,0.00,40.00,12,6,30,0.00
2013-6-18,69,58,48,27,24,20,41,28,16,0.00,40.00,13,10,35,0.00
2013-6-19,71,64,55,19,10,4,24,12,9,0.00,40.00,16,12,28,0.00
2013-6-20,69,57,44,23,15,3,28,19,11,0.00,40.00,11,7,21,0.00
2013-6-22,67,62,51,21,18,14,24,18,14,0.00,40.00,20,13,34,0.00
2013-6-23,68,54,43,31,21,14,47,28,16,0.00,40.00,16,8,43,0.00
2013-6-24,67,58,51,28,18,13,36,22,13,0.00,40.00,15,10,27,0.00
2013-6-25,66,56,46,30,25,18,49,30,24,0.00,40.00,19,11,30,0.00
2013-6-26,74,64,54,31,28,26,34,27,18,0.00,40.00,14,8,26,0.00
2013-6-27,77,67,55,34,27,18,37,23,12,0.00,40.00,12,6,27,0.00
2013-6-28,80,68,60,42,32,26,49,28,16,0.00,40.00,16,8,24,0.00
2013-6-29,72,63,56,44,36,28,56,37,26,0.00,40.00,17,6,48,0.00
2013-6-30,68,57,51,44,38,33,73,51,30,0.00,40.00,20,7,54,0.15
2013-7-1,65,57,48,41,36,33,58,46,35,0.00,40.00,16,6,49,0.14
2013-7-2,66,57,48,38,34,28,62,44,25,0.00,40.00,16,6,55,0.00
2013-7-3,68,55,47,41,36,30,78,51,25,0.00,40.00,15,6,55,0.00
2013-7-4,72,58,48,42,37,33,66,48,24,0.00,40.00,23,6,50,0.00
2013-7-5,64,58,50,48,43,36,77,58,45,0.00,40.00,23,8,81,0.13
2013-7-6,68,57,46,45,41,38,92,57,34,0.00,40.00,22,8,45,0.04
2013-7-7,70,60,48,44,40,36,87,51,30,0.00,40.00,15,8,41,0.03
2013-7-8,69,57,47,47,40,-100,93,57,32,0.00,40.00,18,8,41,0.27
2013-7-9,71,64,53,38,34,26,57,33,25,0.00,40.00,15,7,53,0.07
2013-7-10,75,67,60,41,32,-100,39,28,20,0.00,40.00,20,11,42,0.00
2013-7-11,79,67,58,41,35,30,53,32,17,0.00,40.00,14,7,37,0.00
2013-7-12,68,57,51,49,44,41,89,64,41,0.00,40.00,16,6,81,0.18
2013-7-13,69,58,51,50,46,42,79,66,44,0.00,40.00,12,5,51,0.02
2013-7-14,66,57,52,49,45,42,81,64,51,0.00,40.00,12,5,37,0.07
2013-7-15,64,56,51,50,44,40,84,65,58,0.00,40.00,10,5,27,0.22
2013-7-16,70,65,54,44,41,36,60,43,31,0.00,40.00,18,9,44,0.01
2013-7-17,74,60,52,47,42,38,66,52,29,0.00,40.00,20,6,51,0.01
2013-7-18,70,57,49,48,45,42,91,65,42,0.00,40.00,18,6,84,0.11
2013-7-19,70,59,50,48,43,34,80,58,27,0.00,40.00,14,5,99,0.03
2013-7-20,72,62,53,41,34,22,54,37,15,0.00,40.00,24,7,60,0.00
2013-7-21,73,65,55,29,22,18,33,20,14,0.00,40.00,19,10,36,0.00
2013-7-22,74,66,58,24,17,8,24,16,8,0.00,40.00,14,10,36,0.00
2013-7-23,76,66,59,29,12,6,28,13,10,0.00,40.00,19,9,40,0.00
2013-7-24,69,62,57,39,34,29,48,36,24,0.00,40.00,24,8,171,0.00
2013-7-25,64,52,46,49,43,38,96,71,48,0.00,40.00,11,5,21,0.25
2013-7-26,68,57,46,42,36,29,79,49,26,0.00,40.00,20,6,40,0.10
2013-7-27,68,58,46,46,36,30,95,47,31,0.00,40.00,13,8,41,0.24
2013-7-28,59,50,44,49,44,38,95,80,60,0.00,40.00,10,4,95,0.44
2013-7-29,53,49,44,47,43,39,98,80,62,0.00,40.00,15,3,183,0.32
2013-7-30,64,53,44,45,41,37,97,67,46,0.00,40.00,11,6,55,0.05
2013-7-31,69,60,52,39,36,33,51,41,29,0.00,40.00,10,5,27,0.01
2013-8-1,68,59,50,43,38,32,73,48,32,0.00,40.00,15,7,34,0.00
2013-8-2,70,59,49,44,37,27,69,47,20,0.00,40.00,28,10,52,0.00
2013-8-3,70,60,54,43,39,34,58,47,27,0.00,40.00,19,8,66,0.00
2013-8-4,69,57,50,44,39,37,67,52,32,0.00,40.00,24,8,54,0.01
2013-8-5,67,54,48,48,41,36,89,62,36,0.00,40.00,14,5,46,0.01
2013-8-6,68,54,48,43,38,34,76,58,29,0.00,40.00,15,6,49,0.01
2013-8-7,59,52,48,40,35,31,68,52,37,0.00,40.00,8,3,20,0.00
2013-8-8,58,51,46,38,34,32,64,53,42,0.00,40.00,11,4,31,0.00
2013-8-9,60,50,45,41,35,31,80,56,34,0.00,40.00,12,5,175,0.01
2013-8-10,64,55,46,34,31,26,56,41,24,0.00,40.00,18,7,42,0.01
2013-8-11,67,54,46,38,34,30,65,47,27,0.00,40.00,14,6,135,0.00
2013-8-12,66,55,46,41,33,27,83,46,24,0.00,40.00,11,6,135,0.01
2013-8-13,58,50,43,41,36,-100,93,62,41,0.00,40.00,15,6,101,0.05
2013-8-14,65,52,43,36,28,-100,72,47,20,0.00,40.00,15,6,42,0.05
2013-8-15,68,54,50,29,14,-100,36,26,15,0.00,40.00,16,7,29,0.00
2013-8-16,73,62,54,24,20,16,26,20,13,0.00,40.00,14,7,171,0.00
2013-8-17,72,63,56,27,22,-100,26,22,14,0.00,40.00,18,8,38,0.00
2013-8-18,71,61,53,38,32,23,54,35,22,0.00,40.00,19,7,158,0.00
2013-8-19,74,59,51,40,24,-100,54,35,16,0.00,40.00,16,7,134,0.00
2013-8-20,73,61,55,41,33,-100,56,37,23,0.00,40.00,19,7,36,0.01
2013-8-21,73,60,50,41,38,32,64,44,25,0.00,40.00,14,7,69,0.01
2013-8-22,69,59,50,44,39,36,75,49,31,0.00,40.00,25,7,135,0.01
2013-8-23,70,55,47,46,43,39,92,66,40,0.00,40.00,15,7,49,0.19
2013-8-24,65,54,47,46,40,-100,89,62,36,0.00,40.00,10,5,59,0.27
2013-8-25,63,54,50,51,44,38,92,68,48,0.00,40.00,8,4,61,0.24
2013-8-26,67,56,48,50,46,44,94,71,48,0.00,40.00,12,6,27,0.11
2013-8-27,66,57,52,48,46,43,75,66,52,0.00,40.00,6,3,22,0.11
2013-8-28,67,60,51,53,46,37,81,59,43,0.00,40.00,18,8,41,0.14
2013-8-29,72,60,51,48,41,36,63,50,33,0.00,40.00,20,7,80,0.07
2013-8-30,67,58,52,45,41,38,70,53,35,0.00,40.00,24,8,51,0.02
2013-8-31,67,56,51,46,40,-100,81,59,39,0.00,40.00,11,6,46,0.06
2013-9-1,67,58,51,47,42,38,64,55,36,0.00,40.00,12,5,28,0.01
2013-9-2,71,62,54,44,40,37,62,46,29,0.00,40.00,14,5,127,0.00
2013-9-3,74,64,56,45,40,36,55,43,27,0.00,40.00,17,7,42,0.00
2013-9-4,72,60,55,46,41,38,64,50,35,0.00,40.00,18,6,30,0.01
2013-9-5,70,61,55,45,41,37,64,48,35,0.00,40.00,12,5,21,0.01
2013-9-6,69,58,49,45,40,35,84,53,34,0.00,40.00,15,6,50,0.02
2013-9-7,68,57,49,47,39,-100,84,55,41,0.00,40.00,16,6,25,0.03
2013-9-8,67,56,47,47,42,36,95,62,43,0.00,40.00,8,5,22,0.06
2013-9-9,60,49,45,50,46,43,97,87,65,0.00,40.00,11,4,31,0.57
2013-9-10,61,51,44,52,45,40,97,82,52,0.00,40.00,13,5,25,0.33
2013-9-11,56,50,47,51,46,42,96,84,71,0.00,40.00,8,3,36,0.32
2013-9-12,57,50,46,52,46,43,96,86,67,0.00,40.00,15,4,127,0.26
2013-9-13,56,49,45,47,44,35,97,81,57,0.00,40.00,8,4,141,0.33
2013-9-14,53,47,44,46,40,-100,89,76,67,0.00,40.00,12,5,194,0.26
2013-9-15,54,45,42,45,41,37,96,86,61,0.00,40.00,10,4,78,0.44
2013-9-16,56,49,42,46,39,35,79,70,59,0.00,40.00,15,7,79,0.08
2013-9-17,64,53,47,40,36,32,71,52,31,0.00,40.00,11,6,21,0.02
2013-9-18,52,47,41,41,36,33,92,67,48,0.00,40.00,11,6,17,0.20
2013-9-19,52,43,37,39,32,17,96,69,40,0.00,40.00,12,6,24,0.08
2013-9-20,60,47,36,27,19,10,52,34,16,0.00,40.00,10,4,74,0.01
2013-9-21,62,52,45,32,24,-100,43,35,27,0.00,40.00,16,7,25,0.00
2013-9-22,53,44,32,42,34,24,96,72,35,0.00,40.00,12,6,21,0.50
2013-9-23,38,32,29,32,29,23,97,87,64,0.00,40.00,14,9,44,0.29
2013-9-24,58,46,34,30,21,4,65,41,16,0.00,40.00,10,5,16,0.19
2013-9-25,61,52,44,22,16,5,34,24,16,0.00,40.00,23,11,43,0.04
2013-9-26,64,53,46,22,17,13,34,25,15,0.00,40.00,17,14,34,0.00
2013-9-27,48,34,22,33,25,16,97,77,27,0.00,40.00,15,7,46,0.20
2013-9-28,44,31,19,27,19,-100,94,65,41,0.00,40.00,14,6,25,0.22
2013-9-29,51,42,33,21,16,10,51,35,27,0.00,40.00,21,10,37,0.01
2013-9-30,60,49,41,28,21,16,39,33,23,0.00,40.00,22,10,34,0.00
2013-10-1,60,52,47,24,22,21,35,31,25,0.00,40.00,13,8,21,0.00
2013-10-2,58,50,43,29,21,16,46,32,23,0.00,40.00,9,5,17,0.00
2013-10-3,57,47,25,25,20,16,89,35,21,0.00,40.00,14,6,26,0.00
2013-10-4,25,20,14,24,18,11,95,91,89,0.00,40.00,28,9,50,0.00
2013-10-5,31,20,14,29,18,11,93,90,89,0.00,40.00,8,5,15,0.25
2013-10-6,43,32,21,41,26,17,93,79,41,0.00,40.00,7,3,13,0.02
2013-10-7,57,46,36,27,18,11,47,33,24,0.00,40.00,7,3,11,0.00
2013-10-8,55,47,40,23,18,13,45,31,22,0.00,40.00,10,4,20,0.00
2013-10-9,51,44,40,26,22,18,47,41,27,0.00,40.00,14,7,29,0.00
2013-10-10,44,36,26,33,24,16,97,64,35,0.00,40.00,15,10,39,0.00
2013-10-11,32,28,27,29,25,22,98,88,82,0.00,40.00,20,11,32,0.03
2013-10-12,41,32,24,26,21,-100,88,65,50,0.00,40.00,8,4,13,0.10
2013-10-13,51,41,31,32,21,12,95,46,31,0.00,40.00,15,8,31,0.01
2013-10-14,38,28,23,30,25,22,98,90,61,0.00,40.00,16,8,34,0.01
2013-10-15,30,23,20,27,21,18,95,92,89,0.00,40.00,6,4,12,0.18
2013-10-16,27,22,18,22,18,16,93,88,78,0.00,40.00,9,4,20,0.05
2013-10-17,33,26,20,22,16,12,91,68,47,0.00,40.00,17,8,42,0.01
2013-10-18,27,21,16,22,14,8,94,78,53,0.00,40.00,14,9,22,0.03
2013-10-19,39,28,20,18,12,-100,63,52,41,0.00,40.00,14,8,25,0.02
2013-10-20,34,28,22,25,19,14,95,68,49,0.00,40.00,15,10,57,0.01
2013-10-21,36,27,20,21,18,16,93,71,48,0.00,40.00,10,5,19,0.02
2013-10-22,46,36,28,22,20,16,62,52,39,0.00,40.00,11,6,17,0.02
2013-10-23,48,40,34,21,19,16,57,43,31,0.00,40.00,11,5,19,0.00
2013-10-24,50,42,36,20,16,10,48,36,25,0.00,40.00,8,5,17,0.00
2013-10-25,47,41,36,20,16,13,51,37,30,0.00,40.00,9,5,18,0.00
2013-10-26,47,38,31,21,16,-100,59,43,28,0.00,40.00,9,5,14,0.00
2013-10-27,45,37,32,22,17,13,57,44,32,0.00,40.00,16,8,29,0.00
2013-10-28,45,39,33,22,15,10,60,38,28,0.00,40.00,18,10,34,0.00
2013-10-29,40,33,25,26,16,7,97,56,28,0.00,40.00,20,11,37,0.00
2013-10-30,27,23,18,24,20,15,96,88,75,0.00,40.00,11,6,25,0.04
2013-10-31,22,19,17,20,17,15,93,91,88,0.00,40.00,11,8,19,0.04
2013-11-1,23,22,20,22,20,18,94,93,92,0.00,40.00,17,10,37,0.00
2013-11-2,44,30,19,34,11,-100,93,59,11,0.00,40.00,12,6,24,0.24
2013-11-3,41,34,13,24,10,-13,95,39,10,0.00,40.00,22,11,32,0.02
2013-11-4,32,20,8,20,13,5,92,73,50,0.00,40.00,9,4,21,0.13
2013-11-5,19,11,5,17,6,-1,92,82,75,0.00,40.00,13,6,33,0.02
2013-11-6,24,17,5,14,8,-1,77,69,61,0.00,40.00,15,7,28,0.05
2013-11-7,42,31,18,20,15,12,77,54,38,0.00,40.00,12,6,21,0.02
2013-11-8,41,35,30,15,11,4,49,38,26,0.00,40.00,24,14,39,0.01
2013-11-9,43,35,29,17,11,-100,48,39,28,0.00,40.00,11,6,17,0.00
2013-11-10,45,37,31,16,14,10,50,38,30,0.00,40.00,13,7,22,0.00
2013-11-11,44,36,30,17,15,12,51,42,33,0.00,40.00,10,6,16,0.00
2013-11-12,47,38,31,16,12,0,49,34,21,0.00,40.00,7,4,12,0.00
2013-11-13,42,36,30,14,8,-2,50,31,21,0.00,40.00,11,6,22,0.00
2013-11-14,37,30,24,24,16,-4,96,59,22,0.00,40.00,8,5,26,0.00
2013-11-15,38,28,21,24,12,-5,95,55,21,0.00,40.00,21,8,43,0.00
2013-11-16,28,22,18,21,15,-100,93,78,58,0.00,40.00,31,17,67,0.01
2013-11-17,27,20,13,20,16,10,90,82,69,0.00,40.00,32,16,74,0.01
2013-11-18,44,28,20,25,16,8,86,63,40,0.00,40.00,8,3,28,0.04
2013-11-19,36,29,25,25,15,5,96,59,35,0.00,40.00,26,10,39,0.03
2013-11-20,32,27,24,24,22,18,97,80,64,0.00,40.00,10,6,21,0.01
2013-11-21,31,24,11,25,20,8,96,85,73,0.00,40.00,11,5,17,0.03
2013-11-22,29,19,11,22,14,8,90,82,51,0.00,40.00,4,2,107,0.09
2013-11-23,35,26,16,24,18,-100,91,74,61,0.00,40.00,14,4,67,0.27
2013-11-24,32,25,20,25,23,18,96,91,64,0.00,40.00,13,4,27,0.01
2013-11-25,29,21,15,19,15,11,93,77,60,0.00,40.00,6,3,14,0.07
2013-11-26,33,23,17,15,12,10,83,65,45,0.00,40.00,8,4,47,0.01
2013-11-27,42,29,19,15,11,7,65,47,31,0.00,40.00,4,2,12,0.03
2013-11-28,44,33,26,15,10,6,49,38,24,0.00,40.00,5,2,9,0.01
2013-11-29,34,28,23,15,12,7,63,51,40,0.00,40.00,10,4,15,0.00
2013-11-30,34,25,20,14,9,-100,73,52,36,0.00,40.00,7,3,12,0.00
2013-12-1,30,24,17,20,14,9,81,65,51,0.00,40.00,19,10,30,0.00
2013-12-2,29,27,24,20,17,14,82,67,53,0.00,40.00,22,14,43,0.00
2013-12-3,28,26,16,23,18,12,93,72,53,0.00,40.00,19,12,34,0.00
2013-12-4,21,2,-7,19,-3,-13,93,79,74,0.00,40.00,10,3,21,0.00
2013-12-5,9,-3,-10,-1,-10,-16,77,72,61,0.00,40.00,6,2,9,0.02
2013-12-6,2,-3,-7,-6,-10,-13,77,71,63,0.00,40.00,7,4,11,0.01
2013-12-7,14,6,0,7,-1,-100,84,77,69,0.00,40.00,9,3,16,0.00
2013-12-8,6,0,-6,2,-5,-12,83,78,70,0.00,40.00,10,5,156,0.00
2013-12-9,1,-7,-13,-6,-14,-20,76,70,66,0.00,40.00,11,6,17,0.00
2013-12-10,15,9,1,8,3,-6,83,74,70,0.00,40.00,16,7,28,0.00
2013-12-11,24,15,7,9,3,-7,83,60,34,0.00,40.00,8,3,79,0.12
2013-12-12,42,26,15,11,0,-9,44,32,21,0.00,40.00,6,3,13,0.19
2013-12-13,29,20,10,8,5,-5,87,54,28,0.00,40.00,11,4,17,0.01
2013-12-14,18,13,9,10,6,-100,87,76,64,0.00,40.00,11,4,17,0.00
2013-12-15,30,23,17,13,11,6,77,59,42,0.00,40.00,12,8,25,0.01
2013-12-16,35,29,24,13,9,-1,58,43,28,0.00,40.00,15,10,26,0.01
2013-12-17,38,30,24,10,7,4,51,38,29,0.00,40.00,11,6,18,0.00
2013-12-18,44,33,28,12,5,3,50,30,22,0.00,40.00,18,8,36,0.00
2013-12-19,37,29,20,20,12,8,75,50,32,0.00,40.00,23,9,40,0.00
2013-12-20,21,17,9,18,13,5,92,86,71,0.00,40.00,10,5,61,0.00
2013-12-21,17,10,7,11,6,-100,86,83,78,0.00,40.00,7,3,12,0.00
2013-12-22,13,9,6,8,5,2,87,82,76,0.00,40.00,20,8,27,0.00
2013-12-23,22,16,11,15,11,8,87,80,71,0.00,40.00,20,12,37,0.00
2013-12-24,23,17,6,19,12,2,90,80,69,0.00,40.00,23,11,42,0.00
2013-12-25,21,14,6,2,-4,-8,85,47,31,0.00,40.00,7,4,15,0.08
2013-12-26,28,22,11,12,2,-12,65,44,23,0.00,40.00,10,6,16,0.01
2013-12-27,38,27,21,18,13,11,70,56,38,0.00,40.00,6,3,17,0.03
2013-12-28,33,25,15,16,13,-100,89,62,48,0.00,40.00,6,3,18,0.01
2013-12-29,17,13,8,12,4,-5,89,69,39,0.00,40.00,9,5,15,0.04
2013-12-30,23,17,12,9,7,0,86,65,48,0.00,40.00,13,8,23,0.01
2013-12-31,26,22,20,19,13,7,80,68,50,0.00,40.00,16,9,26,0.00
2014-1-1,22,15,10,18,12,7,91,86,79,0.00,40.00,19,12,34,0.00
2014-1-2,29,20,10,15,7,0,86,57,35,0.00,40.00,11,7,21,0.03